| time (UTC) | temp C | wind direction | speed KPH | gust KPH | rain 1hr cm | rain 24hr cm | rain mn cm | humidity % | barometer mb |
| 20260502210743 | 14 | 0.0 | 0.0 | 0.00 | 0.00 | 0.81 | 99 | 1015.6 | |
| 20260502210228 | 14 | 0.0 | 0.0 | 0.00 | 0.00 | 0.81 | 99 | 1015.4 | |
| 20260502205722 | 14 | 0.0 | 0.0 | 0.05 | 0.00 | 0.81 | 99 | 1015.6 | |
| 20260502205216 | 14 | 0.0 | 0.0 | 0.05 | 0.00 | 0.81 | 99 | 1015.2 | |
| 20260502204710 | 15 | 0.0 | 0.0 | 0.05 | 0.00 | 0.81 | 99 | 1015.3 | |
| 20260502204204 | 15 | 0.0 | 0.0 | 0.05 | 0.00 | 0.81 | 99 | 1015.5 | |
| 20260502203706 | 15 | 0.0 | 0.0 | 0.05 | 0.00 | 0.81 | 99 | 1015.4 | |
| 20260502203151 | 15 | 0.0 | 0.0 | 0.05 | 0.00 | 0.81 | 99 | 1015.4 | |
| 20260502202646 | 15 | 0.0 | 1.6 | 0.05 | 0.00 | 0.81 | 99 | 1015.5 | |
| 20260502202140 | 15 | 0.0 | 0.0 | 0.00 | 0.00 | 0.74 | 99 | 1015.6 | |
| 20260502201634 | 15 | 0.0 | 0.0 | 0.00 | 0.00 | 0.74 | 99 | 1015.6 | |
| 20260502201128 | 15 | 0.0 | 0.0 | 0.00 | 0.00 | 0.74 | 99 | 1015.7 | |
| 20260502200631 | 15 | 0.0 | 0.0 | 0.00 | 0.00 | 0.74 | 99 | 1015.6 | |
| 20260502200115 | 15 | 0.0 | 0.0 | 0.00 | 0.00 | 0.74 | 99 | 1015.7 | |
| 20260502195609 | 15 | 1.6 | 3.2 | 0.05 | 0.00 | 0.74 | 99 | 1015.7 | |
| 20260502195103 | 15 | 0.0 | 0.0 | 0.05 | 0.00 | 0.74 | 99 | 1015.8 | |
| 20260502194557 | 15 | 0.0 | 0.0 | 0.05 | 0.00 | 0.74 | 99 | 1015.9 | |
| 20260502194051 | 15 | 0.0 | 0.0 | 0.05 | 0.00 | 0.74 | 99 | 1016.0 | |
| 20260502193039 | 15 | 0.0 | 0.0 | 0.05 | 0.00 | 0.74 | 99 | 1016.0 | |
| 20260502192533 | 15 | 0.0 | 0.0 | 0.05 | 0.00 | 0.74 | 99 | 1016.0 | |
| 20260502192027 | 15 | 0.0 | 0.0 | 0.05 | 0.00 | 0.74 | 99 | 1016.0 | |
| 20260502191522 | 15 | 0.0 | 0.0 | 0.05 | 0.00 | 0.74 | 99 | 1016.0 | |
| 20260502191016 | 15 | 0.0 | 0.0 | 0.00 | 0.00 | 0.69 | 99 | 1015.9 | |
| 20260502190518 | 15 | 1.6 | 3.2 | 0.00 | 0.00 | 0.69 | 99 | 1015.9 | |
| 20260502190003 | 15 | 3.2 | 8.0 | 0.00 | 0.00 | 0.69 | 99 | 1015.8 | |
| 20260502185456 | 15 | 3.2 | 8.0 | 0.00 | 0.00 | 0.69 | 99 | 1015.9 | |
| 20260502184950 | 15 | 1.6 | 4.8 | 0.00 | 0.00 | 0.69 | 99 | 1016.0 | |
| 20260502184444 | 15 | 1.6 | 4.8 | 0.00 | 0.00 | 0.69 | 99 | 1016.0 | |
| 20260502183939 | 15 | 1.6 | 3.2 | 0.00 | 0.00 | 0.69 | 99 | 1016.0 | |
| 20260502183441 | 15 | 1.6 | 6.4 | 0.00 | 0.00 | 0.69 | 99 | 1015.9 | |
| 20260502182926 | 16 | 1.6 | 6.4 | 0.00 | 0.00 | 0.69 | 99 | 1015.9 | |
| 20260502182420 | 16 | 1.6 | 6.4 | 0.00 | 0.00 | 0.69 | 99 | 1015.7 | |
| 20260502181914 | 16 | 1.6 | 3.2 | 0.00 | 0.00 | 0.69 | 99 | 1015.8 | |
| 20260502181409 | 16 | 1.6 | 6.4 | 0.00 | 0.00 | 0.69 | 99 | 1015.7 | |
| 20260502180903 | 16 | 1.6 | 6.4 | 0.00 | 0.00 | 0.69 | 99 | 1015.6 | |
| 20260502180405 | 16 | 3.2 | 8.0 | 0.00 | 0.00 | 0.69 | 99 | 1015.5 | |
| 20260502170252 | 16 | 0.0 | 0.0 | 0.00 | 0.00 | 0.69 | 99 | 1016.6 | |
| 20260502164218 | 16 | 0.0 | 0.0 | 0.00 | 0.00 | 0.64 | 99 | 1016.7 | |
| 20260502163713 | 16 | 0.0 | 0.0 | 0.00 | 0.00 | 0.64 | 99 | 1016.8 | |
| 20260502163215 | 16 | 0.0 | 0.0 | 0.00 | 0.00 | 0.64 | 99 | 1016.7 | |
| 20260502162700 | 16 | 0.0 | 0.0 | 0.00 | 0.00 | 0.64 | 99 | 1016.6 | |
| 20260502162154 | 17 | 0.0 | 0.0 | 0.00 | 0.00 | 0.64 | 99 | 1016.7 | |
| 20260502161648 | 17 | 0.0 | 0.0 | 0.00 | 0.00 | 0.64 | 99 | 1016.7 | |
| 20260502161143 | 16 | 0.0 | 0.0 | 0.00 | 0.00 | 0.64 | 99 | 1016.9 | |
| 20260502160637 | 16 | 0.0 | 0.0 | 0.00 | 0.00 | 0.64 | 99 | 1017.0 | |
| 20260502160139 | 17 | 0.0 | 0.0 | 0.00 | 0.00 | 0.64 | 99 | 1017.0 | |
| 20260502152042 | 17 | 1.6 | 4.8 | 0.10 | 0.00 | 0.64 | 99 | 1016.7 | |
| 20260502151536 | 16 | 0.0 | 0.0 | 0.05 | 0.00 | 0.56 | 99 | 1017.0 | |
| 20260502151030 | 17 | 1.6 | 4.8 | 0.05 | 0.00 | 0.56 | 99 | 1017.1 | |
| 20260502150524 | 17 | 0.0 | 0.0 | 0.05 | 0.00 | 0.56 | 99 | 1016.9 | |
| 20260502130259 | 21 | 3.2 | 9.7 | 0.00 | 0.00 | 0.10 | 99 | 1018.1 | |
| 20260502123730 | 23 | 4.8 | 14.5 | 0.00 | 0.00 | 0.10 | 99 | 1017.9 | |
| 20260502123224 | 23 | 4.8 | 14.5 | 0.00 | 0.00 | 0.10 | 99 | 1017.9 | |
| 20260502122726 | 23 | 4.8 | 16.1 | 0.00 | 0.00 | 0.10 | 99 | 1017.9 | |
| 20260502122212 | 22 | 4.8 | 14.5 | 0.00 | 0.00 | 0.10 | 99 | 1017.9 | |
| 20260502121706 | 22 | 4.8 | 12.9 | 0.00 | 0.00 | 0.10 | 99 | 1017.8 | |
| 20260502121159 | 22 | 6.4 | 17.7 | 0.00 | 0.00 | 0.10 | 99 | 1017.7 | |
| 20260502120654 | 22 | 4.8 | 16.1 | 0.00 | 0.00 | 0.10 | 99 | 1017.9 | |
| 20260502120148 | 22 | 4.8 | 16.1 | 0.00 | 0.00 | 0.10 | 99 | 1017.9 | |
| 20260502115649 | 22 | 4.8 | 12.9 | 0.00 | 0.00 | 0.10 | 99 | 1017.9 | |
| 20260502115134 | 22 | 3.2 | 11.3 | 0.00 | 0.00 | 0.10 | 99 | 1017.9 | |
| 20260502114629 | 22 | 3.2 | 11.3 | 0.00 | 0.00 | 0.10 | 99 | 1018.0 | |
| 20260502114123 | 22 | 1.6 | 6.4 | 0.00 | 0.00 | 0.10 | 99 | 1018.0 | |
| 20260502113617 | 20 | 3.2 | 9.7 | 0.00 | 0.00 | 0.10 | 99 | 1018.1 | |
| 20260502113111 | 20 | 1.6 | 3.2 | 0.00 | 0.00 | 0.10 | 99 | 1018.1 | |
| 20260502112614 | 20 | 3.2 | 9.7 | 0.00 | 0.00 | 0.10 | 99 | 1018.3 | |
| 20260502112059 | 20 | 3.2 | 11.3 | 0.00 | 0.00 | 0.10 | 99 | 1018.3 | |
| 20260502111553 | 20 | 3.2 | 8.0 | 0.00 | 0.00 | 0.10 | 99 | 1018.5 | |
| 20260502111047 | 20 | 3.2 | 9.7 | 0.00 | 0.00 | 0.10 | 99 | 1018.5 | |
| 20260502110541 | 20 | 3.2 | 8.0 | 0.00 | 0.00 | 0.10 | 99 | 1018.5 | |
| 20260502110035 | 20 | 1.6 | 6.4 | 0.00 | 0.00 | 0.10 | 99 | 1018.6 | |
| 20260502105539 | 20 | 1.6 | 6.4 | 0.00 | 0.00 | 0.10 | 99 | 1018.4 | |
| 20260502105024 | 21 | 3.2 | 9.7 | 0.00 | 0.00 | 0.10 | 99 | 1018.4 | |
| 20260502104518 | 21 | 3.2 | 8.0 | 0.00 | 0.00 | 0.10 | 99 | 1018.4 | |
| 20260502103506 | 20 | 0.0 | 1.6 | 0.00 | 0.00 | 0.10 | 99 | 1018.3 | |
| 20260502103000 | 18 | 0.0 | 1.6 | 0.00 | 0.00 | 0.10 | 99 | 1018.2 | |
| 20260502102502 | 18 | 1.6 | 4.8 | 0.00 | 0.00 | 0.10 | 99 | 1018.1 | |
| 20260502101948 | 19 | 3.2 | 8.0 | 0.00 | 0.00 | 0.10 | 99 | 1018.0 | |
| 20260502101442 | 18 | 1.6 | 4.8 | 0.00 | 0.00 | 0.10 | 99 | 1018.0 | |
| 20260502100936 | 17 | 0.0 | 0.0 | 0.00 | 0.00 | 0.10 | 99 | 1018.0 | |
| 20260502100430 | 17 | 0.0 | 0.0 | 0.00 | 0.00 | 0.10 | 99 | 1018.1 | |
| 20260502091331 | 16 | 1.6 | 4.8 | 0.00 | 0.00 | 0.05 | 99 | 1018.0 | |
| 20260502090825 | 16 | 3.2 | 11.3 | 0.00 | 0.00 | 0.05 | 99 | 1018.0 | |
| 20260502090320 | 16 | 1.6 | 6.4 | 0.00 | 0.00 | 0.05 | 99 | 1018.0 | |
| 20260502071106 | 15 | 1.6 | 4.8 | 0.00 | 0.00 | 0.00 | 99 | 1018.0 | |
| 20260502070600 | 15 | 0.0 | 1.6 | 0.00 | 0.00 | 0.00 | 99 | 1018.1 | |
| 20260502070054 | 15 | 1.6 | 3.2 | 0.00 | 0.00 | 0.00 | 99 | 1018.1 | |
| 20260502065547 | 14 | 0.0 | 1.6 | 0.00 | 0.00 | 0.00 | 99 | 1018.0 | |
| 20260502065050 | 13 | 1.6 | 3.2 | 0.00 | 0.00 | 0.00 | 99 | 1018.1 | |
| 20260502064535 | 14 | 1.6 | 3.2 | 0.00 | 0.00 | 0.00 | 99 | 1018.1 | |
| 20260502064029 | 14 | 1.6 | 4.8 | 0.00 | 0.00 | 0.00 | 99 | 1018.1 | |
| 20260502063524 | 14 | 0.0 | 0.0 | 0.00 | 0.00 | 0.00 | 99 | 1018.2 | |
| 20260502063018 | 14 | 0.0 | 0.0 | 0.00 | 0.00 | 0.00 | 99 | 1018.2 | |
| 20260502062512 | 14 | 0.0 | 0.0 | 0.00 | 0.00 | 0.00 | 99 | 1018.2 | |
| 20260502062014 | 14 | 0.0 | 0.0 | 0.00 | 0.00 | 0.00 | 99 | 1018.2 | |
| 20260502061459 | 14 | 1.6 | 3.2 | 0.00 | 0.00 | 0.00 | 99 | 1018.2 | |
| 20260502060954 | 15 | 1.6 | 6.4 | 0.00 | 0.00 | 0.00 | 99 | 1018.2 | |
| 20260502060448 | 17 | 3.2 | 8.0 | 0.00 | 0.00 | 0.00 | 99 | 1018.3 | |
| 20260502055942 | 15 | 1.6 | 3.2 | 0.00 | 0.00 | 0.00 | 99 | 1018.3 | |
| 20260502055435 | 13 | 1.6 | 4.8 | 0.00 | 0.00 | 0.00 | 99 | 1018.4 | |
| 20260502054937 | 13 | 1.6 | 6.4 | 0.00 | 0.00 | 0.00 | 99 | 1018.3 | |
| 20260502054422 | 13 | 3.2 | 8.0 | 0.00 | 0.00 | 0.00 | 99 | 1018.2 | |
| 20260502053916 | 13 | 1.6 | 3.2 | 0.00 | 0.00 | 0.00 | 99 | 1018.2 | |
| 20260502053411 | 13 | 0.0 | 0.0 | 0.00 | 0.00 | 0.00 | 99 | 1018.3 | |
| 20260502052905 | 13 | 0.0 | 1.6 | 0.00 | 0.00 | 0.00 | 99 | 1018.3 | |
| 20260502052359 | 13 | 0.0 | 0.0 | 0.00 | 0.00 | 0.00 | 99 | 1018.3 | |
| 20260502051902 | 13 | 0.0 | 0.0 | 0.00 | 0.00 | 0.00 | 99 | 1018.3 | |
| 20260502051347 | 13 | 0.0 | 1.6 | 0.00 | 0.00 | 0.00 | 99 | 1018.3 | |
| 20260502050841 | 13 | 0.0 | 1.6 | 0.00 | 0.00 | 0.00 | 99 | 1018.2 | |
| 20260502050335 | 13 | 0.0 | 0.0 | 0.00 | 0.00 | 0.00 | 99 | 1018.3 | |
| 20260502045828 | 13 | 0.0 | 0.0 | 0.00 | 0.00 | 0.00 | 99 | 1018.2 | |
| 20260502045322 | 13 | 0.0 | 1.6 | 0.00 | 0.00 | 0.00 | 99 | 1018.2 | |
| 20260502044824 | 13 | 0.0 | 0.0 | 0.00 | 0.00 | 0.00 | 99 | 1018.1 | |
| 20260502044310 | 13 | 0.0 | 1.6 | 0.00 | 0.00 | 0.00 | 99 | 1018.2 | |
| 20260502043804 | 13 | 0.0 | 0.0 | 0.00 | 0.00 | 0.00 | 99 | 1018.1 | |
| 20260502043258 | 13 | 0.0 | 0.0 | 0.00 | 0.00 | 0.00 | 99 | 1018.1 | |
| 20260502042756 | 13 | 1.6 | 3.2 | 0.00 | 0.00 | 0.00 | 99 | 1018.0 | |
| 20260502042246 | 13 | 1.6 | 4.8 | 0.00 | 0.00 | 0.00 | 99 | 1018.0 | |
| 20260502041748 | 13 | 1.6 | 4.8 | 0.00 | 0.00 | 0.00 | 99 | 1018.0 | |
| 20260502041233 | 13 | 0.0 | 1.6 | 0.00 | 0.00 | 0.00 | 99 | 1018.0 | |
| 20260502040727 | 13 | 0.0 | 0.0 | 0.00 | 0.00 | 0.00 | 99 | 1018.1 | |
| 20260502040221 | 13 | 0.0 | 0.0 | 0.00 | 0.00 | 0.00 | 99 | 1018.1 | |
| 20260502035714 | 13 | 1.6 | 3.2 | 0.00 | 0.00 | 0.00 | 99 | 1018.1 | |
| 20260502035209 | 13 | 1.6 | 6.4 | 0.00 | 0.00 | 0.00 | 99 | 1018.0 | |
| 20260502034711 | 13 | 0.0 | 1.6 | 0.00 | 0.00 | 0.00 | 99 | 1018.1 | |
| 20260502034156 | 13 | 1.6 | 4.8 | 0.00 | 0.00 | 0.00 | 99 | 1018.2 | |
| 20260502033650 | 13 | 1.6 | 6.4 | 0.00 | 0.00 | 0.00 | 99 | 1018.0 | |
| 20260502033144 | 13 | 3.2 | 9.7 | 0.00 | 0.00 | 0.00 | 99 | 1018.0 | |
| 20260502032638 | 13 | 1.6 | 4.8 | 0.00 | 0.00 | 0.00 | 99 | 1018.1 | |
| 20260502032132 | 13 | 3.2 | 8.0 | 0.00 | 0.00 | 0.00 | 99 | 1018.1 | |
| 20260502031635 | 13 | 3.2 | 11.3 | 0.00 | 0.00 | 0.00 | 99 | 1018.1 | |
| 20260502031120 | 13 | 3.2 | 9.7 | 0.00 | 0.00 | 0.00 | 99 | 1018.2 | |
| 20260502030614 | 13 | 1.6 | 6.4 | 0.00 | 0.00 | 0.00 | 99 | 1018.3 | |
| 20260502030108 | 13 | 1.6 | 6.4 | 0.00 | 0.00 | 0.00 | 99 | 1018.3 | |
| 20260502025601 | 13 | 0.0 | 1.6 | 0.00 | 0.00 | 0.00 | 99 | 1018.3 | |
| 20260502025055 | 13 | 1.6 | 6.4 | 0.00 | 0.00 | 0.00 | 99 | 1018.2 | |
| 20260502024557 | 13 | 1.6 | 3.2 | 0.00 | 0.00 | 0.00 | 99 | 1018.2 | |
| 20260502024042 | 13 | 1.6 | 6.4 | 0.00 | 0.00 | 0.00 | 99 | 1018.2 | |
| 20260502023536 | 13 | 1.6 | 3.2 | 0.00 | 0.00 | 0.00 | 99 | 1018.2 | |
| 20260502023030 | 13 | 1.6 | 6.4 | 0.00 | 0.00 | 0.00 | 99 | 1018.2 | |
| 20260502022524 | 13 | 1.6 | 6.4 | 0.00 | 0.00 | 0.00 | 99 | 1018.3 | |
| 20260502022018 | 13 | 3.2 | 9.7 | 0.00 | 0.00 | 0.00 | 99 | 1018.3 | |
| 20260502021521 | 13 | 3.2 | 8.0 | 0.00 | 0.00 | 0.00 | 99 | 1018.3 | |
| 20260502021006 | 13 | 1.6 | 3.2 | 0.00 | 0.00 | 0.00 | 99 | 1018.4 | |
| 20260502020500 | 13 | 0.0 | 1.6 | 0.00 | 0.00 | 0.00 | 99 | 1018.5 | |
| 20260502015954 | 13 | 1.6 | 4.8 | 0.00 | 0.00 | 0.00 | 99 | 1018.5 | |
| 20260502015448 | 13 | 1.6 | 6.4 | 0.00 | 0.00 | 0.00 | 99 | 1018.5 | |
| 20260502014942 | 13 | 3.2 | 8.0 | 0.00 | 0.00 | 0.00 | 99 | 1018.5 | |
| 20260502014444 | 13 | 0.0 | 1.6 | 0.00 | 0.00 | 0.00 | 99 | 1018.5 | |
| 20260502013929 | 13 | 1.6 | 3.2 | 0.00 | 0.00 | 0.00 | 99 | 1018.6 | |
| 20260502013424 | 14 | 3.2 | 11.3 | 0.00 | 0.00 | 0.00 | 99 | 1018.5 | |
| 20260502012918 | 14 | 3.2 | 9.7 | 0.00 | 0.00 | 0.00 | 99 | 1018.5 | |
| 20260502011905 | 14 | 3.2 | 11.3 | 0.00 | 0.00 | 0.00 | 99 | 1018.6 | |
| 20260502011407 | 14 | 4.8 | 12.9 | 0.00 | 0.00 | 0.00 | 99 | 1018.6 | |
| 20260502010852 | 14 | 4.8 | 14.5 | 0.00 | 0.00 | 0.00 | 99 | 1018.6 | |
| 20260502010346 | 14 | 4.8 | 12.9 | 0.00 | 0.00 | 0.00 | 99 | 1018.6 | |
| 20260502005840 | 14 | 4.8 | 14.5 | 0.00 | 0.00 | 0.00 | 99 | 1018.7 | |
| 20260502005334 | 15 | 4.8 | 14.5 | 0.00 | 0.00 | 0.00 | 99 | 1018.8 | |
| 20260502004828 | 15 | 3.2 | 11.3 | 0.00 | 0.00 | 0.00 | 99 | 1018.9 | |
| 20260502004331 | 15 | 1.6 | 6.4 | 0.00 | 0.00 | 0.00 | 99 | 1018.9 | |
| 20260502003816 | 15 | 0.0 | 1.6 | 0.00 | 0.00 | 0.00 | 99 | 1019.0 | |
| 20260502003310 | 15 | 0.0 | 1.6 | 0.00 | 0.00 | 0.00 | 99 | 1019.1 | |
| 20260502002804 | 15 | 1.6 | 4.8 | 0.00 | 0.00 | 0.00 | 99 | 1019.1 | |
| 20260502002259 | 15 | 3.2 | 9.7 | 0.00 | 0.00 | 0.00 | 99 | 1019.1 | |
| 20260502001753 | 15 | 3.2 | 9.7 | 0.00 | 0.00 | 0.00 | 99 | 1019.1 | |
| 20260502001255 | 15 | 3.2 | 8.0 | 0.00 | 0.00 | 0.00 | 99 | 1019.1 | |
| 20260502000741 | 15 | 1.6 | 3.2 | 0.00 | 0.00 | 0.00 | 99 | 1019.2 | |
| 20260502000235 | 15 | 1.6 | 6.4 | 0.00 | 0.00 | 0.00 | 99 | 1019.2 | |
| 20260501235728 | 15 | 3.2 | 11.3 | 0.00 | 0.00 | 0.00 | 99 | 1019.2 | |
| 20260501235222 | 15 | 3.2 | 11.3 | 0.00 | 0.00 | 0.00 | 99 | 1019.2 | |
| 20260501234716 | 15 | 4.8 | 12.9 | 0.00 | 0.00 | 0.00 | 99 | 1019.3 | |
| 20260501234218 | 16 | 4.8 | 12.9 | 0.00 | 0.00 | 0.00 | 99 | 1019.3 | |
| 20260501233703 | 16 | 4.8 | 12.9 | 0.00 | 0.00 | 0.00 | 99 | 1019.4 | |
| 20260501233158 | 16 | 4.8 | 12.9 | 0.00 | 0.00 | 0.00 | 99 | 1019.5 | |
| 20260501232652 | 16 | 4.8 | 12.9 | 0.00 | 0.00 | 0.00 | 99 | 1019.5 | |
| 20260501232146 | 16 | 3.2 | 11.3 | 0.00 | 0.00 | 0.00 | 99 | 1019.5 | |
| 20260501231640 | 16 | 3.2 | 11.3 | 0.00 | 0.00 | 0.00 | 99 | 1019.7 | |
| 20260501231142 | 16 | 4.8 | 12.9 | 0.00 | 0.00 | 0.00 | 99 | 1019.7 | |
| 20260501230627 | 16 | 3.2 | 9.7 | 0.00 | 0.00 | 0.00 | 99 | 1019.8 | |
| 20260501230121 | 16 | 3.2 | 11.3 | 0.00 | 0.00 | 0.00 | 99 | 1019.8 | |
| 20260501225615 | 17 | 4.8 | 12.9 | 0.00 | 0.00 | 0.00 | 99 | 1019.9 | |
| 20260501225109 | 17 | 3.2 | 11.3 | 0.00 | 0.00 | 0.00 | 99 | 1019.9 | |
| 20260501224603 | 17 | 3.2 | 8.0 | 0.00 | 0.00 | 0.00 | 99 | 1020.0 | |
| 20260501224105 | 17 | 3.2 | 9.7 | 0.00 | 0.00 | 0.00 | 99 | 1019.9 | |
| 20260501223550 | 17 | 3.2 | 8.0 | 0.00 | 0.00 | 0.00 | 99 | 1019.9 | |
| 20260501223044 | 17 | 3.2 | 11.3 | 0.00 | 0.00 | 0.00 | 99 | 1019.9 | |
| 20260501222538 | 17 | 4.8 | 12.9 | 0.00 | 0.00 | 0.00 | 99 | 1019.9 | |
| 20260501222034 | 17 | 4.8 | 12.9 | 0.00 | 0.00 | 0.00 | 99 | 1019.9 | |
| 20260501221526 | 17 | 3.2 | 9.7 | 0.00 | 0.00 | 0.00 | 99 | 1020.0 | |
| 20260501221029 | 17 | 3.2 | 11.3 | 0.00 | 0.00 | 0.00 | 99 | 1019.9 | |
| 20260501220514 | 18 | 3.2 | 8.0 | 0.00 | 0.00 | 0.00 | 99 | 1019.9 | |
| 20260501220008 | 18 | 3.2 | 11.3 | 0.00 | 0.00 | 0.00 | 99 | 1019.9 | |
| 20260501215501 | 18 | 3.2 | 9.7 | 0.00 | 0.00 | 0.00 | 99 | 1019.9 | |
| 20260501214955 | 18 | 3.2 | 11.3 | 0.00 | 0.00 | 0.00 | 99 | 1019.9 | |
| 20260501214449 | 18 | 4.8 | 14.5 | 0.00 | 0.00 | 0.00 | 99 | 1019.8 | |
| 20260501213951 | 18 | 4.8 | 14.5 | 0.00 | 0.00 | 0.00 | 99 | 1019.9 | |
| 20260501213437 | 18 | 4.8 | 12.9 | 0.00 | 0.00 | 0.00 | 99 | 1019.8 | |
| 20260501212931 | 18 | 3.2 | 11.3 | 0.00 | 0.00 | 0.00 | 99 | 1019.8 | |
| 20260501212425 | 18 | 3.2 | 11.3 | 0.00 | 0.00 | 0.00 | 99 | 1019.8 | |
| 20260501211919 | 18 | 3.2 | 11.3 | 0.00 | 0.00 | 0.00 | 99 | 1019.8 | |
| 20260501211413 | 18 | 0.0 | 0.0 | 0.00 | 0.00 | 0.00 | 99 | 1019.8 |